Time,TemperatureF,DewpointF,PressureIn,WindDirection,WindDirectionDegrees,WindSpeedMPH,WindSpeedGustMPH,Humidity,HourlyPrecipIn,Conditions,Clouds,dailyrainin,SolarRadiationWatts/m^2,SoftwareType,DateUTC
2013-11-24 00:01:00,17.0,8.0,-100.00,NNE,31,9.0,19.0,67,0.00,,,0.00,0.000000,,2013-11-24 05:01:00,
2013-11-24 00:23:00,17.0,8.0,-100.00,NNE,31,9.0,19.0,67,0.00,,,0.00,0.000000,,2013-11-24 05:23:00,
2013-11-24 00:34:00,17.0,8.0,-100.00,NNE,31,9.0,19.0,67,0.00,,,0.00,0.000000,,2013-11-24 05:34:00,
2013-11-24 00:43:00,17.0,8.0,-100.00,NNE,31,9.0,19.0,67,0.00,,,0.00,0.000000,,2013-11-24 05:43:00,
2013-11-24 00:53:00,17.0,8.0,-100.00,NNE,31,9.0,19.0,67,0.00,,,0.00,0.000000,,2013-11-24 05:53:00,
2013-11-24 01:01:00,15.0,2.0,-100.00,NNE,22,8.0,22.0,56,0.00,,,0.00,0.000000,,2013-11-24 06:01:00,
2013-11-24 01:22:00,15.0,2.0,-100.00,NNE,22,8.0,22.0,56,0.00,,,0.00,0.000000,,2013-11-24 06:22:00,
2013-11-24 01:32:00,15.0,2.0,-100.00,NNE,22,8.0,22.0,56,0.00,,,0.00,0.000000,,2013-11-24 06:32:00,
2013-11-24 01:42:00,15.0,2.0,-100.00,NNE,22,8.0,22.0,56,0.00,,,0.00,0.000000,,2013-11-24 06:42:00,
2013-11-24 01:52:00,15.0,2.0,-100.00,NNE,22,8.0,22.0,56,0.00,,,0.00,0.000000,,2013-11-24 06:52:00,
2013-11-24 02:01:00,14.0,2.0,-100.00,NNW,343,9.0,22.0,57,0.00,,,0.00,0.000000,,2013-11-24 07:01:00,
2013-11-24 02:22:00,14.0,2.0,-100.00,NNW,343,9.0,22.0,57,0.00,,,0.00,0.000000,,2013-11-24 07:22:00,
2013-11-24 02:32:00,14.0,2.0,-100.00,NNW,343,9.0,22.0,57,0.00,,,0.00,0.000000,,2013-11-24 07:32:00,
2013-11-24 02:42:00,14.0,2.0,-100.00,NNW,343,9.0,22.0,57,0.00,,,0.00,0.000000,,2013-11-24 07:42:00,
2013-11-24 02:52:00,14.0,2.0,-100.00,NNW,343,9.0,22.0,57,0.00,,,0.00,0.000000,,2013-11-24 07:52:00,
2013-11-24 03:01:00,13.0,2.0,-100.00,NNE,31,10.0,17.0,60,0.00,,,0.00,0.000000,,2013-11-24 08:01:00,
2013-11-24 03:22:00,13.0,2.0,-100.00,NNE,31,10.0,17.0,60,0.00,,,0.00,0.000000,,2013-11-24 08:22:00,
2013-11-24 03:32:00,13.0,2.0,-100.00,NNE,31,10.0,17.0,60,0.00,,,0.00,0.000000,,2013-11-24 08:32:00,
2013-11-24 03:42:00,13.0,2.0,-100.00,NNE,31,10.0,17.0,60,0.00,,,0.00,0.000000,,2013-11-24 08:42:00,
2013-11-24 03:53:00,13.0,2.0,-100.00,NNE,31,10.0,17.0,60,0.00,,,0.00,0.000000,,2013-11-24 08:53:00,
2013-11-24 04:01:00,12.0,0.0,-100.00,NNE,26,9.0,22.0,59,0.00,,,0.00,0.000000,,2013-11-24 09:01:00,
2013-11-24 04:22:00,12.0,0.0,-100.00,NNE,26,9.0,22.0,59,0.00,,,0.00,0.000000,,2013-11-24 09:22:00,
2013-11-24 04:33:00,12.0,0.0,-100.00,NNE,26,9.0,22.0,59,0.00,,,0.00,0.000000,,2013-11-24 09:33:00,
2013-11-24 04:43:00,12.0,0.0,-100.00,NNE,26,9.0,22.0,59,0.00,,,0.00,0.000000,,2013-11-24 09:43:00,
2013-11-24 04:54:00,12.0,0.0,-100.00,NNE,26,9.0,22.0,59,0.00,,,0.00,0.000000,,2013-11-24 09:54:00,
2013-11-24 05:01:00,11.0,1.0,-100.00,NNE,20,7.0,21.0,64,0.00,,,0.00,0.000000,,2013-11-24 10:01:00,
2013-11-24 05:43:00,11.0,1.0,-100.00,NNE,20,7.0,21.0,64,0.00,,,0.00,0.000000,,2013-11-24 10:43:00,
2013-11-24 05:53:00,11.0,1.0,-100.00,NNE,20,7.0,21.0,64,0.00,,,0.00,0.000000,,2013-11-24 10:53:00,
2013-11-24 06:01:00,11.0,3.0,-100.00,North,2,8.0,22.0,69,0.00,,,0.00,0.000000,,2013-11-24 11:01:00,
2013-11-24 06:22:00,11.0,3.0,-100.00,North,2,8.0,22.0,69,0.00,,,0.00,0.000000,,2013-11-24 11:22:00,
2013-11-24 06:33:00,11.0,3.0,-100.00,North,2,8.0,22.0,69,0.00,,,0.00,0.000000,,2013-11-24 11:33:00,
2013-11-24 06:43:00,11.0,3.0,-100.00,North,2,8.0,22.0,69,0.00,,,0.00,0.000000,,2013-11-24 11:43:00,
2013-11-24 06:53:00,11.0,3.0,-100.00,North,2,8.0,22.0,69,0.00,,,0.00,0.000000,,2013-11-24 11:53:00,
2013-11-24 07:01:00,10.0,2.0,-100.00,NNE,24,8.0,22.0,69,0.00,,,0.00,0.000000,,2013-11-24 12:01:00,
2013-11-24 07:22:00,10.0,2.0,-100.00,NNE,24,8.0,22.0,69,0.00,,,0.00,0.000000,,2013-11-24 12:22:00,
2013-11-24 07:32:00,10.0,2.0,-100.00,NNE,24,8.0,22.0,69,0.00,,,0.00,0.000000,,2013-11-24 12:32:00,
2013-11-24 07:42:00,10.0,2.0,-100.00,NNE,24,8.0,22.0,69,0.00,,,0.00,0.000000,,2013-11-24 12:42:00,
2013-11-24 07:53:00,10.0,2.0,-100.00,NNE,24,8.0,22.0,69,0.00,,,0.00,0.000000,,2013-11-24 12:53:00,
2013-11-24 08:01:00,9.0,-1.0,-100.00,NE,34,12.0,21.0,62,0.00,,,0.00,19.000000,,2013-11-24 13:01:00,
2013-11-24 08:22:00,9.0,-1.0,-100.00,NE,34,12.0,21.0,62,0.00,,,0.00,19.000000,,2013-11-24 13:22:00,
2013-11-24 08:32:00,9.0,-1.0,-100.00,NE,34,12.0,21.0,62,0.00,,,0.00,19.000000,,2013-11-24 13:32:00,
2013-11-24 08:42:00,9.0,-1.0,-100.00,NE,34,12.0,21.0,62,0.00,,,0.00,19.000000,,2013-11-24 13:42:00,
2013-11-24 08:52:00,9.0,-1.0,-100.00,NE,34,12.0,21.0,62,0.00,,,0.00,19.000000,,2013-11-24 13:52:00,
2013-11-24 09:01:00,10.0,0.0,-100.00,NNE,30,10.0,22.0,63,0.00,,,0.00,117.000000,,2013-11-24 14:01:00,
2013-11-24 09:42:00,10.0,0.0,-100.00,NNE,30,10.0,22.0,63,0.00,,,0.00,117.000000,,2013-11-24 14:42:00,
2013-11-24 09:53:00,10.0,0.0,-100.00,NNE,30,10.0,22.0,63,0.00,,,0.00,117.000000,,2013-11-24 14:53:00,
2013-11-24 10:01:00,13.0,1.0,-100.00,NE,45,7.0,19.0,57,0.00,,,0.00,308.000000,,2013-11-24 15:01:00,
2013-11-24 10:22:00,13.0,1.0,-100.00,NE,45,7.0,19.0,57,0.00,,,0.00,308.000000,,2013-11-24 15:22:00,
2013-11-24 10:33:00,13.0,1.0,-100.00,NE,45,7.0,19.0,57,0.00,,,0.00,308.000000,,2013-11-24 15:33:00,
2013-11-24 10:44:00,13.0,1.0,-100.00,NE,45,7.0,19.0,57,0.00,,,0.00,308.000000,,2013-11-24 15:44:00,
2013-11-24 10:53:00,13.0,1.0,-100.00,NE,45,7.0,19.0,57,0.00,,,0.00,308.000000,,2013-11-24 15:53:00,
2013-11-24 11:01:00,16.0,1.0,-100.00,NNE,14,5.0,16.0,50,0.00,,,0.00,472.000000,,2013-11-24 16:01:00,
2013-11-24 11:23:00,16.0,1.0,-100.00,NNE,14,5.0,16.0,50,0.00,,,0.00,472.000000,,2013-11-24 16:23:00,
2013-11-24 11:33:00,16.0,1.0,-100.00,NNE,14,5.0,16.0,50,0.00,,,0.00,472.000000,,2013-11-24 16:33:00,
2013-11-24 11:43:00,16.0,1.0,-100.00,NNE,14,5.0,16.0,50,0.00,,,0.00,472.000000,,2013-11-24 16:43:00,
2013-11-24 11:53:00,16.0,1.0,-100.00,NNE,14,5.0,16.0,50,0.00,,,0.00,472.000000,,2013-11-24 16:53:00,
2013-11-24 12:01:00,17.0,1.0,-100.00,NNE,19,6.0,19.0,49,0.00,,,0.00,639.000000,,2013-11-24 17:01:00,
2013-11-24 12:23:00,17.0,1.0,-100.00,NNE,19,6.0,19.0,49,0.00,,,0.00,639.000000,,2013-11-24 17:23:00,
2013-11-24 12:33:00,17.0,1.0,-100.00,NNE,19,6.0,19.0,49,0.00,,,0.00,639.000000,,2013-11-24 17:33:00,
2013-11-24 12:43:00,17.0,1.0,-100.00,NNE,19,6.0,19.0,49,0.00,,,0.00,639.000000,,2013-11-24 17:43:00,
2013-11-24 12:52:00,17.0,1.0,-100.00,NNE,19,6.0,19.0,49,0.00,,,0.00,639.000000,,2013-11-24 17:52:00,
2013-11-24 13:01:00,19.0,1.0,-100.00,NNE,21,5.0,14.0,45,0.00,,,0.00,673.000000,,2013-11-24 18:01:00,
2013-11-24 13:22:00,19.0,1.0,-100.00,NNE,21,5.0,14.0,45,0.00,,,0.00,673.000000,,2013-11-24 18:22:00,
2013-11-24 13:33:00,19.0,1.0,-100.00,NNE,21,5.0,14.0,45,0.00,,,0.00,673.000000,,2013-11-24 18:33:00,
2013-11-24 13:42:00,19.0,1.0,-100.00,NNE,21,5.0,14.0,45,0.00,,,0.00,673.000000,,2013-11-24 18:42:00,
2013-11-24 13:53:00,19.0,1.0,-100.00,NNE,21,5.0,14.0,45,0.00,,,0.00,673.000000,,2013-11-24 18:53:00,
2013-11-24 14:01:00,18.0,0.0,-100.00,NNE,21,6.0,15.0,45,0.00,,,0.00,611.000000,,2013-11-24 19:01:00,
2013-11-24 14:22:00,18.0,0.0,-100.00,NNE,21,6.0,15.0,45,0.00,,,0.00,611.000000,,2013-11-24 19:22:00,
2013-11-24 14:32:00,18.0,0.0,-100.00,NNE,21,6.0,15.0,45,0.00,,,0.00,611.000000,,2013-11-24 19:32:00,
2013-11-24 14:42:00,18.0,0.0,-100.00,NNE,21,6.0,15.0,45,0.00,,,0.00,611.000000,,2013-11-24 19:42:00,
2013-11-24 14:52:00,18.0,0.0,-100.00,NNE,21,6.0,15.0,45,0.00,,,0.00,611.000000,,2013-11-24 19:52:00,
2013-11-24 15:01:00,18.0,0.0,-100.00,NE,35,7.0,13.0,44,0.00,,,0.00,507.000000,,2013-11-24 20:01:00,
2013-11-24 15:22:00,18.0,0.0,-100.00,NE,35,7.0,13.0,44,0.00,,,0.00,507.000000,,2013-11-24 20:22:00,
2013-11-24 15:32:00,18.0,0.0,-100.00,NE,35,7.0,13.0,44,0.00,,,0.00,507.000000,,2013-11-24 20:32:00,
2013-11-24 15:42:00,18.0,0.0,-100.00,NE,35,7.0,13.0,44,0.00,,,0.00,507.000000,,2013-11-24 20:42:00,
2013-11-24 15:52:00,18.0,0.0,-100.00,NE,35,7.0,13.0,44,0.00,,,0.00,507.000000,,2013-11-24 20:52:00,
2013-11-24 16:01:00,17.0,-1.0,-100.00,NE,42,7.0,13.0,45,0.00,,,0.00,335.000000,,2013-11-24 21:01:00,
2013-11-24 16:22:00,17.0,-1.0,-100.00,NE,42,7.0,13.0,45,0.00,,,0.00,335.000000,,2013-11-24 21:22:00,
2013-11-24 16:34:00,17.0,-1.0,-100.00,NE,42,7.0,13.0,45,0.00,,,0.00,335.000000,,2013-11-24 21:34:00,
2013-11-24 16:43:00,17.0,-1.0,-100.00,NE,42,7.0,13.0,45,0.00,,,0.00,335.000000,,2013-11-24 21:43:00,
2013-11-24 16:54:00,17.0,-1.0,-100.00,NE,42,7.0,13.0,45,0.00,,,0.00,335.000000,,2013-11-24 21:54:00,
2013-11-24 17:01:00,14.0,0.0,-100.00,North,5,5.0,14.0,52,0.00,,,0.00,120.000000,,2013-11-24 22:01:00,
2013-11-24 17:23:00,14.0,0.0,-100.00,North,5,5.0,14.0,52,0.00,,,0.00,120.000000,,2013-11-24 22:23:00,
2013-11-24 17:33:00,14.0,0.0,-100.00,North,5,5.0,14.0,52,0.00,,,0.00,120.000000,,2013-11-24 22:33:00,
2013-11-24 17:43:00,14.0,0.0,-100.00,North,5,5.0,14.0,52,0.00,,,0.00,120.000000,,2013-11-24 22:43:00,
2013-11-24 17:53:00,14.0,0.0,-100.00,North,5,5.0,14.0,52,0.00,,,0.00,120.000000,,2013-11-24 22:53:00,
2013-11-24 18:01:00,13.0,1.0,-100.00,NE,35,6.0,14.0,58,0.00,,,0.00,1.000000,,2013-11-24 23:01:00,
2013-11-24 18:22:00,13.0,1.0,-100.00,NE,35,6.0,14.0,58,0.00,,,0.00,1.000000,,2013-11-24 23:22:00,
2013-11-24 18:33:00,13.0,1.0,-100.00,NE,35,6.0,14.0,58,0.00,,,0.00,1.000000,,2013-11-24 23:33:00,
2013-11-24 18:42:00,13.0,1.0,-100.00,NE,35,6.0,14.0,58,0.00,,,0.00,1.000000,,2013-11-24 23:42:00,
2013-11-24 18:52:00,13.0,1.0,-100.00,NE,35,6.0,14.0,58,0.00,,,0.00,1.000000,,2013-11-24 23:52:00,
2013-11-24 19:01:00,12.0,1.0,-100.00,NNE,31,5.0,10.0,60,0.00,,,0.00,0.000000,,2013-11-25 00:01:00,
2013-11-24 19:43:00,12.0,1.0,-100.00,NNE,31,5.0,10.0,60,0.00,,,0.00,0.000000,,2013-11-25 00:43:00,
2013-11-24 19:52:00,12.0,1.0,-100.00,NNE,31,5.0,10.0,60,0.00,,,0.00,0.000000,,2013-11-25 00:52:00,
2013-11-24 20:01:00,12.0,1.0,-100.00,NE,36,4.0,12.0,61,0.00,,,0.00,0.000000,,2013-11-25 01:01:00,
2013-11-24 20:43:00,12.0,1.0,-100.00,NE,36,4.0,12.0,61,0.00,,,0.00,0.000000,,2013-11-25 01:43:00,
2013-11-24 20:53:00,12.0,1.0,-100.00,NE,36,4.0,12.0,61,0.00,,,0.00,0.000000,,2013-11-25 01:53:00,
2013-11-24 21:01:00,11.0,0.0,-100.00,NE,37,4.0,7.0,61,0.00,,,0.00,0.000000,,2013-11-25 02:01:00,
2013-11-24 21:43:00,11.0,0.0,-100.00,NE,37,4.0,7.0,61,0.00,,,0.00,0.000000,,2013-11-25 02:43:00,
2013-11-24 21:52:00,11.0,0.0,-100.00,NE,37,4.0,7.0,61,0.00,,,0.00,0.000000,,2013-11-25 02:52:00,
2013-11-24 22:01:00,11.0,0.0,-100.00,West,267,4.0,6.0,61,0.00,,,0.00,0.000000,,2013-11-25 03:01:00,
2013-11-24 22:43:00,11.0,0.0,-100.00,West,267,4.0,6.0,61,0.00,,,0.00,0.000000,,2013-11-25 03:43:00,
2013-11-24 22:53:00,11.0,0.0,-100.00,West,267,4.0,6.0,61,0.00,,,0.00,0.000000,,2013-11-25 03:53:00,
2013-11-24 23:01:00,9.0,2.0,-100.00,NE,48,4.0,6.0,73,0.00,,,0.00,0.000000,,2013-11-25 04:01:00,
2013-11-24 23:43:00,9.0,2.0,-100.00,NE,48,4.0,6.0,73,0.00,,,0.00,0.000000,,2013-11-25 04:43:00,
2013-11-24 23:53:00,9.0,2.0,-100.00,NE,48,4.0,6.0,73,0.00,,,0.00,0.000000,,2013-11-25 04:53:00,